DW6400 Weather Reports


Display with metric or nautical units.
time (UTC)temp
F
wind
direction
speed
MPH
gust
MPH
rain 1hr
in
rain 24hr
in
rain mn
in
humidity
%
barometer
mb
20180121083106 27 329 1.0 2.0 0.00 0.00 0.00 92 1004.6
20180121081605 27 329 0.0 3.0 0.00 0.00 0.00 92 1004.2
20180121080105 28 329 0.0 3.0 0.00 0.00 0.00 92 1004.1
20180121074558 28 329 0.0 2.0 0.00 0.00 0.00 92 1004.2
20180121073057 28 329 0.0 2.0 0.00 0.00 0.00 92 1004.5
20180121071559 28 329 1.0 4.0 0.00 0.00 0.00 91 1004.4
20180121070057 28 329 1.0 3.0 0.00 0.00 0.00 91 1004.8
20180121064552 28 329 0.0 3.0 0.00 0.00 0.00 90 1004.9
20180121063052 28 329 0.0 3.0 0.00 0.00 0.00 89 1005.1
20180121060100 28 329 0.0 2.0 0.00 0.00 0.00 88 1004.9
20180121054548 29 329 0.0 3.0 0.00 0.00 0.00 87 1004.8
20180121053046 29 329 0.0 3.0 0.00 0.00 0.00 86 1004.6
20180121051546 29 329 1.0 3.0 0.00 0.00 0.00 85 1004.5
20180121050041 29 329 0.0 2.0 0.00 0.00 0.00 85 1004.6
20180121044540 30 329 0.0 3.0 0.00 0.00 0.00 84 1004.8
20180121043037 30 329 0.0 3.0 0.00 0.00 0.00 84 1004.9
20180121041536 30 329 1.0 2.0 0.00 0.00 0.00 83 1004.9
20180121040037 30 329 0.0 4.0 0.00 0.00 0.00 82 1004.9
20180121034537 31 329 1.0 4.0 0.00 0.00 0.00 81 1004.8
20180121033030 31 329 1.0 3.0 0.00 0.00 0.00 80 1004.8
20180121031530 32 329 1.0 3.0 0.00 0.00 0.00 79 1004.5
20180121030026 32 329 0.0 3.0 0.00 0.00 0.00 77 1004.5
20180121024526 32 329 0.0 2.0 0.00 0.00 0.00 76 1004.6
20180121023021 33 329 0.0 0.0 0.00 0.00 0.00 71 1004.5
20180121021520 34 329 0.0 1.0 0.00 0.00 0.00 69 1004.5
20180121020018 34 329 0.0 5.0 0.00 0.00 0.00 69 1004.3
20180121014515 35 329 1.0 4.0 0.00 0.00 0.00 67 1004.1
20180121013011 36 329 0.0 2.0 0.00 0.00 0.00 64 1004.0
20180121011511 37 329 0.0 0.0 0.00 0.00 0.00 63 1003.8
20180121010008 37 329 0.0 3.0 0.00 0.00 0.00 62 1003.6
20180120235958 41 329 1.0 5.0 0.00 0.00 0.00 52 1002.7
20180120234452 42 329 1.0 4.0 0.00 0.00 0.00 49 1002.7
20180120232951 42 328 1.0 4.0 0.00 0.00 0.00 47 1002.4
20180120231451 42 328 1.0 4.0 0.00 0.00 0.00 46 1002.2
20180120225948 43 340 0.0 3.0 0.00 0.00 0.00 45 1002.1
20180120224450 44 340 0.0 5.0 0.00 0.00 0.00 44 1001.9
20180120222946 44 340 0.0 5.0 0.00 0.00 0.00 43 1001.6
20180120221446 45 340 1.0 6.0 0.00 0.00 0.00 41 1001.4
20180120215948 46 340 2.0 5.0 0.00 0.00 0.00 39 1001.1
20180120214545 46 340 1.0 6.0 0.00 0.00 0.00 37 1000.9
20180120212944 48 340 3.0 6.0 0.00 0.00 0.00 35 1000.7
20180120211443 49 338 3.0 6.0 0.00 0.00 0.00 33 1000.7
20180120205942 51 338 3.0 8.0 0.00 0.00 0.00 31 1000.4
20180120204442 52 334 2.0 11.0 0.00 0.00 0.00 31 1000.3
20180120202943 51 348 4.0 10.0 0.00 0.00 0.00 31 1000.2
20180120201442 50 342 4.0 8.0 0.00 0.00 0.00 32 1000.3
20180120195939 52 335 2.0 6.0 0.00 0.00 0.00 30 1000.0
20180120194441 55 347 4.0 9.0 0.00 0.00 0.00 26 1000.1
20180120192938 59 318 5.0 11.0 0.00 0.00 0.00 22 1000.1
20180120191437 61 156 2.0 6.0 0.00 0.00 0.00 20 1000.4
20180120185932 62 288 2.0 8.0 0.00 0.00 0.00 21 1000.8
20180120184429 60 337 1.0 9.0 0.00 0.00 0.00 23 1001.1
20180120182926 59 137 0.0 7.0 0.00 0.00 0.00 23 1001.6
20180120181420 57 139 0.0 7.0 0.00 0.00 0.00 25 1002.1
20180120175916 55 139 0.0 9.0 0.00 0.00 0.00 26 1002.5
20180120174417 55 144 3.0 11.0 0.00 0.00 0.00 26 1002.7
20180120172912 55 141 6.0 13.0 0.00 0.00 0.00 26 1003.0
20180120171406 53 150 2.0 9.0 0.00 0.00 0.00 27 1003.0
20180120165906 52 141 3.0 9.0 0.00 0.00 0.00 28 1003.2
20180120164403 51 150 3.0 12.0 0.00 0.00 0.00 30 1003.4
20180120162858 50 144 2.0 8.0 0.00 0.00 0.00 31 1003.4
20180120161358 48 136 4.0 9.0 0.00 0.00 0.00 34 1003.5
20180120155852 46 138 3.0 7.0 0.00 0.00 0.00 35 1003.6
20180120154347 44 143 4.0 11.0 0.00 0.00 0.00 36 1003.5
20180120152846 44 150 5.0 12.0 0.00 0.00 0.00 35 1003.4
20180120151345 44 143 5.0 9.0 0.00 0.00 0.00 35 1003.2
20180120145845 45 138 4.0 11.0 0.00 0.00 0.00 34 1002.9
20180120144342 44 147 5.0 10.0 0.00 0.00 0.00 34 1002.8
20180120142841 45 141 5.0 11.0 0.00 0.00 0.00 33 1002.6
20180120141339 46 139 5.0 13.0 0.00 0.00 0.00 32 1002.5
20180120135841 45 138 5.0 14.0 0.00 0.00 0.00 33 1002.5
20180120134340 44 144 4.0 9.0 0.00 0.00 0.00 35 1002.3
20180120132837 41 142 3.0 7.0 0.00 0.00 0.00 38 1002.3
20180120131339 38 140 5.0 9.0 0.00 0.00 0.00 43 1002.2
20180120125836 37 136 2.0 11.0 0.00 0.00 0.00 44 1002.1
20180120124337 36 142 1.0 5.0 0.00 0.00 0.00 44 1002.1
20180120122831 38 141 4.0 9.0 0.00 0.00 0.00 41 1002.0
20180120121328 38 139 4.0 8.0 0.00 0.00 0.00 41 1002.0
20180120115826 39 139 1.0 7.0 0.00 0.00 0.00 39 1001.9
20180120114326 41 139 1.0 4.0 0.00 0.00 0.00 36 1002.0
20180120112824 42 139 3.0 5.0 0.00 0.00 0.00 36 1002.2
20180120111323 40 138 3.0 8.0 0.00 0.00 0.00 39 1002.2
20180120105820 40 140 2.0 8.0 0.00 0.00 0.00 37 1002.4
20180120104319 39 137 0.0 7.0 0.00 0.00 0.00 38 1002.6
20180120102815 41 137 4.0 8.0 0.00 0.00 0.00 35 1002.5
20180120101313 42 136 2.0 10.0 0.00 0.00 0.00 36 1002.6
20180120095815 44 132 2.0 5.0 0.00 0.00 0.00 32 1002.7
20180120094312 47 126 3.0 11.0 0.00 0.00 0.00 30 1002.9
20180120092809 48 136 4.0 11.0 0.00 0.00 0.00 29 1002.8
20180120091307 45 135 5.0 15.0 0.00 0.00 0.00 33 1002.8
20180120085802 43 142 4.0 11.0 0.00 0.00 0.00 35 1002.8
20180120084300 41 140 1.0 3.0 0.00 0.00 0.00 36 1002.9